Погода в Гвардамаре-дель-Сегуре

Испания     38°05′21″N   0°39′15″E
темп.,
°C
ветер,
м/с
пор.,
м/с
влажн.,
%
обл.,
%
осадки,
мм/ч
давл.,
гПа
погр.,
м
16 мая, вс
вс1623:00+21юз224899 0.0 101312
02:00+21юз224616 0.0 101312
05:00+20юз22482 0.0 101212
08:00+22з22470 0.0 101314
11:00+28з35330 0.0 1013539
14:00+30ю45300 0.0 10121348
17:00+27ююв773726 0.0 1010311
20:00+27ююз4737100 0.0 1010219
17 мая, пн
пн1723:00+23ссз0151100 0.0 101211
02:00+23зюз114546 0.0 101211
05:00+23сз33467 0.0 101218
08:00+20св377398 0.0 1014177
11:00+20всв111378100 0.0 1017550
14:00+21всв9116775 0.0 1018686
17:00+20всв8966100 0.0 1018658
20:00+19всв677014 0.0 1018577
18 мая, вт
вт1823:00+18всв34785 0.0 1020255
02:00+17св23805 0.0 1020169
05:00+16св228582 0.0 1020131
08:00+17с118012 0.0 1020147
11:00+20в21650 0.0 1021643
14:00+22вюв53604 0.0 1021780
17:00+23ююв44584 0.0 1019624
20:00+20ююв44711 0.0 1018371
19 мая, ср
ср1923:00+18ююв24835 0.0 1020111
02:00+18юв12865 0.0 102029
05:00+17всв358915 0.0 1021143
08:00+18всв358798 0.0 1022456
11:00+19всв567599 0.1 1024616
14:00+20всв676994 0.1 1024808
17:00+21всв77648 0.0 1023748
20:00+19всв577198 0.0 1023624
20 мая, чт
чт2023:00+18всв358210 0.0 1025267
02:00+17св338347 0.0 1024175
05:00+16ссв238632 0.0 1023155
08:00+17св34815 0.0 1024307
11:00+20всв55675 0.0 1024741
14:00+21в65605 0.0 1023750
17:00+21в656056 0.0 1022639
20:00+19в44650 0.0 1021473